STARLINK-36698, 67709

Orbit data source: Space-Track

STARLINK-36698, 67709 is a payload satellite owned by SpaceX/Seattle (US) in SSO that was launched on Sat, 07 Feb 2026 UTC via an FALCON 9 launch vehicle from the Air Force Western Test Range (AFWTR). Payload-class satellites include a variety of spacecraft equipped with specific instruments for various scientific and technological missions. These include communications satellites like Starlink; space stations such as the ISS; scientific satellites like the Hubble; Earth observation satellites from companies like Planet Labs, Umbra, and HawkEye 360; GPS; miniature CubeSats for education and research; and military/defense satellites.

Loading next visibility...
Identifier
67709, 2026-025S
Orbit
SSO
Country
Flag of USUS
Related business
Manufacturer
SpaceX/Seattle
Mission
Operational spacecraft
Bus & Motor
STARLINK V2MO, Unknown motor
Mass
575 kg wet, ~530 kg dry
Launch date (UTC)
2026-02-07 (2 months ago)
Launch vehicle
FALCON 9
Launch site
Air Force Western Test Range (AFWTR)
Object type
Payload
Rocket body
Debris
Shape & HBR
Unknown shape, 17.7 m
Radar Cross Section
RCS unknown

Expand to show TLE details & history
Last TLE update: 19 hours ago

TLE from 19 hours ago
0 STARLINK-36698
1 67709U 26025S   26103.58293360  .00013390  00000-0  41632-3 0  9997
2 67709  97.2848 215.8319 0000582  53.2883 306.8413 15.33447734 11369
Epoch: 2026-04-13T13:59Z
TLE epoch observation values (Epoch: 2026-04-13T13:59:25.463Z)
Latitude
-0.00001°
Longitude
164.20435°
Altitude
468.408 km
Speed
7.632 km/s
True Right ascension
14h 23m 19s
True Declination
0° 00' 00"
Sunlit
Object was in full shadow at epoch
Visualization orbit readout
Latitude
Unknown
Longitude
Unknown
Altitude
Unknown
Speed
Unknown
Apparent Right ascension
Unknown
Apparent Declination
Unknown
Sunlit
N/A
Visualization observer readout
Local Sidereal Time
15:08:19
Azimuth
Unknown
Elevation
Unknown
Doppler factor
Unknown
Orbital elements
Apogee altitude
462.876 km
Perigee altitude
462.08 km
Semi-major axis
6,840.615 km
Eccentricity
0.00006
Inclination
97.2848°
RAAN
215.8319°
Arg. of periapsis
53.2883°
True anomaly
306.83596°
Mean anomaly
306.8413°
Eccentric anomaly
306.83863°
Mean motion
3.83619 °/min
Orbital period
93.84 mins
BSTAR
0.00041632
Loading maneuver chart data...
Computing Atmospheric mass density...
Loading historical data...
Loading historical data...
Loading historical data...
Loading historical data...
Loading historical data...
Loading historical data...
Loading historical data...

Documentation

Showing up to 5 results
|